Precipitable_Water
0.48 0.50 0.51 0.53 0.54 0.54 0.54 0.53 0.49 0.44 0.45 0.48 0.45 0.54 0.54 0.50 0.45 0.40 0.34 0.31 0.32 0.33 0.37 0.38 0.38 0.39 0.44 0.46 0.46 0.47 0.49 0.51 0.51 0.52 0.56 0.56 0.56 0.58
0.48 0.48 0.49 0.50 0.50 0.50 0.48 0.48 0.47 0.42 0.36 0.43 0.43 0.48 0.52 0.52 0.52 0.50 0.47 0.46 0.43 0.42 0.42 0.42 0.42 0.39 0.39 0.42 0.40 0.40 0.43 0.45 0.50 0.51 0.53 0.57 0.58 0.60
0.46 0.45 0.45 0.47 0.47 0.47 0.47 0.46 0.44 0.44 0.38 0.41 0.44 0.44 0.42 0.40 0.41 0.42 0.43 0.44 0.45 0.47 0.53 0.56 0.58 0.59 0.61 0.60 0.58 0.53 0.49 0.50 0.48 0.50 0.54 0.55 0.54 0.61
0.40 0.40 0.40 0.41 0.41 0.41 0.41 0.40 0.40 0.40 0.37 0.31 0.35 0.36 0.37 0.40 0.40 0.40 0.41 0.44 0.44 0.45 0.46 0.48 0.49 0.51 0.50 0.51 0.51 0.51 0.54 0.59 0.60 0.59 0.58 0.59 0.59 0.56
0.37 0.36 0.36 0.36 0.34 0.35 0.36 0.35 0.36 0.37 0.37 0.34 0.31 0.34 0.33 0.34 0.32 0.34 0.34 0.35 0.39 0.41 0.42 0.45 0.46 0.47 0.46 0.47 0.49 0.49 0.51 0.53 0.54 0.56 0.58 0.60 0.58 0.59
0.38 0.36 0.33 0.33 0.34 0.35 0.36 0.36 0.36 0.35 0.36 0.34 0.33 0.33 0.34 0.34 0.33 0.30 0.28 0.32 0.31 0.35 0.37 0.40 0.42 0.43 0.44 0.43 0.43 0.42 0.41 0.40 0.42 0.48 0.51 0.56 0.59 0.59
0.37 0.36 0.36 0.37 0.39 0.41 0.40 0.39 0.39 0.36 0.36 0.35 0.33 0.33 0.33 0.32 0.31 0.33 0.30 0.31 0.30 0.32 0.32 0.35 0.37 0.40 0.41 0.42 0.42 0.42 0.42 0.42 0.44 0.45 0.45 0.50 0.55 0.58
0.42 0.41 0.40 0.39 0.39 0.41 0.45 0.48 0.47 0.42 0.39 0.38 0.36 0.33 0.33 0.34 0.36 0.35 0.33 0.31 0.28 0.38 0.34 0.31 0.34 0.30 0.31 0.33 0.35 0.39 0.41 0.42 0.45 0.45 0.46 0.48 0.49 0.51
0.43 0.43 0.41 0.40 0.39 0.39 0.40 0.41 0.42 0.45 0.45 0.40 0.36 0.35 0.34 0.35 0.37 0.34 0.33 0.32 0.31 0.35 0.36 0.29 0.34 0.30 0.33 0.33 0.33 0.33 0.35 0.37 0.40 0.43 0.47 0.49 0.48 0.48
0.46 0.45 0.43 0.41 0.39 0.37 0.35 0.34 0.34 0.35 0.35 0.37 0.38 0.37 0.38 0.39 0.38 0.36 0.36 0.37 0.37 0.37 0.39 0.31 0.34 0.31 0.32 0.33 0.35 0.35 0.35 0.36 0.38 0.41 0.42 0.44 0.45 0.46
0.41 0.39 0.37 0.33 0.33 0.34 0.33 0.30 0.29 0.30 0.33 0.35 0.37 0.36 0.37 0.39 0.40 0.39 0.34 0.33 0.31 0.31 0.36 0.33 0.30 0.28 0.29 0.31 0.34 0.38 0.39 0.40 0.42 0.42 0.43 0.43 0.44 0.45
0.32 0.30 0.30 0.29 0.28 0.29 0.30 0.28 0.26 0.26 0.27 0.28 0.30 0.32 0.35 0.36 0.35 0.34 0.32 0.28 0.29 0.28 0.32 0.30 0.29 0.29 0.23 0.27 0.28 0.32 0.35 0.37 0.38 0.39 0.41 0.44 0.44 0.43
0.28 0.27 0.27 0.28 0.27 0.28 0.27 0.26 0.24 0.26 0.25 0.26 0.26 0.27 0.29 0.30 0.31 0.32 0.33 0.31 0.28 0.26 0.32 0.33 0.30 0.30 0.29 0.27 0.28 0.30 0.31 0.30 0.31 0.34 0.36 0.37 0.38 0.39
0.27 0.27 0.28 0.29 0.28 0.29 0.28 0.27 0.26 0.28 0.29 0.27 0.25 0.23 0.24 0.24 0.25 0.28 0.28 0.30 0.31 0.29 0.32 0.34 0.29 0.29 0.27 0.25 0.24 0.28 0.28 0.30 0.31 0.30 0.31 0.32 0.34 0.36
0.28 0.27 0.27 0.27 0.27 0.26 0.25 0.25 0.27 0.26 0.24 0.23 0.22 0.22 0.23 0.25 0.26 0.26 0.26 0.29 0.30 0.31 0.32 0.33 0.31 0.30 0.29 0.27 0.26 0.26 0.26 0.26 0.28 0.27 0.27 0.27 0.28 0.30
0.23 0.24 0.26 0.26 0.25 0.25 0.26 0.26 0.27 0.27 0.26 0.24 0.22 0.22 0.24 0.24 0.23 0.25 0.22 0.24 0.24 0.23 0.27 0.31 0.33 0.33 0.29 0.27 0.27 0.24 0.26 0.23 0.25 0.25 0.26 0.25 0.26 0.27
0.28 0.26 0.25 0.24 0.24 0.25 0.26 0.25 0.25 0.25 0.24 0.25 0.24 0.23 0.22 0.23 0.23 0.25 0.24 0.24 0.22 0.21 0.20 0.24 0.29 0.32 0.31 0.29 0.25 0.25 0.24 0.23 0.24 0.23 0.25 0.22 0.22 0.23
0.32 0.28 0.25 0.24 0.24 0.25 0.23 0.23 0.24 0.24 0.25 0.26 0.26 0.25 0.24 0.24 0.23 0.24 0.26 0.24 0.22 0.22 0.21 0.22 0.24 0.25 0.26 0.27 0.30 0.24 0.25 0.23 0.22 0.24 0.25 0.21 0.19 0.23
0.29 0.26 0.25 0.25 0.24 0.25 0.24 0.25 0.24 0.26 0.27 0.26 0.24 0.23 0.23 0.23 0.22 0.21 0.23 0.23 0.21 0.21 0.21 0.23 0.23 0.22 0.20 0.17 0.21 0.28 0.23 0.23 0.25 0.24 0.25 0.24 0.22 0.23
0.26 0.25 0.25 0.25 0.25 0.24 0.25 0.25 0.25 0.26 0.25 0.24 0.24 0.24 0.24 0.23 0.21 0.21 0.20 0.20 0.20 0.20 0.20 0.21 0.22 0.22 0.21 0.19 0.20 0.22 0.29 0.26 0.27 0.26 0.27 0.29 0.30 0.32
0.24 0.24 0.24 0.24 0.24 0.25 0.25 0.25 0.25 0.24 0.25 0.25 0.25 0.25 0.25 0.24 0.22 0.22 0.22 0.22 0.22 0.22 0.20 0.20 0.24 0.28 0.29 0.30 0.24 0.22 0.26 0.32 0.33 0.30 0.30 0.28 0.26 0.27
0.25 0.25 0.26 0.26 0.26 0.26 0.26 0.26 0.25 0.25 0.24 0.25 0.26 0.26 0.26 0.25 0.24 0.24 0.24 0.23 0.23 0.24 0.24 0.27 0.29 0.29 0.29 0.27 0.24 0.25 0.27 0.30 0.34 0.36 0.36 0.34 0.28 0.23
0.27 0.28 0.28 0.28 0.28 0.28 0.28 0.27 0.26 0.24 0.25 0.25 0.25 0.25 0.27 0.25 0.25 0.26 0.27 0.27 0.27 0.27 0.28 0.27 0.28 0.30 0.29 0.29 0.28 0.27 0.28 0.28 0.29 0.30 0.31 0.37 0.37 0.36
Wind_Speed
18 18 17 17 16 16 16 16 15 15 16 16 16 18 19 21 22 24 25 27 28 28 29 29 29 29 29 29 29 30 30 31 31 32 31 31 31 30
21 21 20 20 20 20 20 19 19 19 19 19 20 22 24 24 24 25 26 27 28 28 29 29 29 29 29 30 30 30 30 31 31 32 32 33 33 33
24 24 24 24 24 24 24 23 23 23 24 24 25 25 26 26 26 27 27 27 27 28 28 28 29 29 29 30 30 31 31 31 30 30 31 32 32 32
28 28 28 28 28 28 28 28 28 28 28 28 28 28 29 29 29 29 29 29 29 29 30 30 30 29 30 30 30 30 31 31 31 31 32 32 32 32
31 31 31 31 32 31 32 32 32 32 32 32 31 32 32 32 32 32 32 32 32 32 31 31 32 32 32 31 31 31 31 32 32 32 32 32 33 34
33 34 34 34 35 35 35 35 35 35 35 35 35 35 35 35 36 35 34 34 35 35 35 35 35 35 34 33 34 34 34 34 35 35 35 35 35 35
37 37 37 38 38 38 38 38 38 38 38 38 38 38 37 37 37 37 37 38 37 36 35 35 35 36 37 39 39 38 38 38 37 37 37 37 37 37
40 40 40 40 41 41 41 41 41 41 41 41 41 41 40 40 40 41 40 40 39 39 39 40 40 40 40 41 42 41 41 40 40 40 39 39 39 39
41 41 41 41 41 41 41 41 41 42 42 42 42 42 42 42 43 43 43 43 43 44 44 44 43 43 42 43 44 44 43 42 42 42 41 41 41 41
42 42 41 41 41 41 40 40 40 41 41 42 43 43 44 44 44 45 45 46 47 47 46 47 45 46 46 46 46 46 45 45 45 45 44 44 43 42
42 42 41 41 41 41 42 42 42 42 43 44 45 46 46 46 46 47 47 48 49 49 49 51 49 49 48 47 46 45 45 44 44 44 44 44 44 44
44 43 43 43 43 43 43 44 44 43 44 44 45 46 47 47 47 48 49 50 51 52 51 50 51 51 50 49 48 46 46 46 46 46 46 46 46 45
45 44 43 44 43 43 43 43 44 45 45 46 46 46 47 47 48 49 50 52 53 54 54 54 53 52 53 53 53 52 52 51 50 50 50 49 49 49
43 43 42 42 42 43 44 45 47 47 47 47 48 48 48 48 49 50 51 52 54 56 56 55 55 54 54 55 55 53 53 53 53 53 52 52 52 52
43 43 43 43 44 45 46 46 46 46 47 48 49 49 49 50 50 50 51 52 53 54 55 55 55 55 55 55 55 54 54 53 53 54 54 54 53 53
44 44 44 45 45 45 45 45 46 48 49 50 51 51 51 50 50 50 50 49 50 51 50 51 52 53 54 55 55 56 54 53 53 53 54 55 55 56
43 44 44 44 44 44 45 46 46 47 48 48 48 49 49 49 48 47 46 45 45 45 45 45 46 47 49 50 51 52 52 53 53 53 53 55 56 56
44 43 43 42 43 43 43 44 44 45 46 46 47 48 47 46 45 45 44 43 42 41 42 42 42 42 43 45 46 46 47 47 47 47 48 48 49 49
42 42 43 43 43 44 44 45 45 45 46 46 45 43 42 41 41 40 38 38 40 40 40 40 38 38 40 41 40 41 42 42 42 42 42 43 43 44
41 42 42 43 43 44 44 44 44 44 43 41 40 39 38 38 37 37 37 38 38 38 38 38 37 37 38 38 38 38 38 38 38 38 37 38 39 40
39 41 42 43 43 43 43 42 40 38 37 37 36 36 36 36 36 35 35 37 37 36 36 35 35 36 36 35 35 34 33 34 35 35 34 33 33 33
39 41 42 42 42 42 39 38 36 35 34 34 34 34 34 33 33 34 34 33 32 32 32 31 30 30 30 30 31 30 29 30 31 33 33 32 28 27
40 41 40 39 38 37 36 35 35 34 34 33 33 32 31 31 31 31 30 29 28 26 26 25 25 25 25 26 26 26 25 25 26 25 27 29 30 30
Wind_Direction
277 277 278 279 278 277 278 278 277 279 278 273 270 266 269 273 274 272 272 272 272 271 270 271 271 271 270 269 270 271 270 270 268 266 265 265 265 265
275 274 275 276 275 275 275 274 273 273 273 272 272 274 275 275 275 275 275 274 273 272 271 271 271 272 271 269 270 271 271 270 269 267 266 265 265 264
273 272 272 273 273 273 273 273 272 271 272 274 274 275 275 276 275 276 276 276 275 274 272 271 272 272 272 271 271 272 271 270 270 269 267 265 264 263
272 271 271 272 272 272 272 271 272 271 271 273 274 274 275 275 275 275 275 274 274 273 273 272 271 272 273 273 273 273 272 270 270 269 268 267 265 264
273 272 272 272 271 271 271 271 271 271 271 271 272 273 274 274 275 274 274 274 273 273 273 271 272 273 273 273 273 273 273 272 271 270 269 268 266 266
273 273 272 272 271 271 271 271 271 271 271 271 272 272 273 274 274 273 273 273 274 273 272 271 271 271 270 271 275 274 274 273 271 270 269 268 267 267
274 273 273 272 272 271 271 271 271 271 271 271 272 272 272 272 272 273 273 273 273 271 271 271 271 271 270 272 273 273 273 273 272 271 269 269 268 266
274 274 273 273 272 272 271 270 270 270 271 271 271 272 272 272 272 272 272 273 271 270 272 273 273 272 272 272 272 272 272 271 270 270 269 268 268 267
274 274 274 273 273 272 272 272 271 271 270 271 271 271 272 272 272 272 272 272 271 272 272 271 271 272 273 273 272 272 271 270 269 268 268 268 268 268
275 274 274 274 273 273 272 272 272 272 272 271 271 272 272 273 272 273 273 272 272 272 272 271 271 271 272 273 272 271 270 269 268 268 268 267 267 267
274 274 273 273 273 273 273 273 273 273 273 272 272 273 273 273 273 273 273 273 272 272 271 271 271 272 272 271 270 270 269 269 268 267 266 266 265 265
274 274 273 273 273 273 273 273 273 274 275 275 274 274 274 274 274 274 273 273 273 273 272 271 271 271 270 268 268 267 268 268 268 266 266 266 265 264
274 273 273 273 274 274 274 274 274 275 275 275 275 275 275 275 275 275 274 274 273 272 272 271 270 269 268 269 268 267 267 267 267 266 266 265 264 263
272 273 273 273 274 275 275 276 276 276 276 275 275 276 276 276 277 277 277 276 274 273 273 271 270 269 269 268 268 267 266 266 266 266 265 264 263 262
272 272 272 273 274 276 277 277 277 276 276 276 276 276 277 278 278 278 277 276 275 274 273 271 270 269 268 268 268 267 267 266 265 265 264 264 262 261
271 272 273 274 276 277 277 277 278 278 277 277 277 277 278 279 279 279 278 277 275 274 273 272 270 268 268 267 267 267 266 266 266 266 264 263 262 261
271 272 274 275 276 278 279 280 280 279 278 278 278 279 279 278 278 277 276 276 275 275 274 273 271 269 268 268 267 267 267 267 267 266 264 263 261 260
270 271 274 275 276 277 280 281 280 280 280 279 279 279 278 277 276 275 274 273 273 274 274 273 272 271 270 268 267 268 268 268 267 266 263 263 261 259
271 271 273 275 277 278 279 280 281 281 281 280 279 278 277 276 274 273 271 272 274 274 274 273 272 271 269 269 270 267 268 268 267 265 263 262 261 259
271 272 274 275 277 279 280 281 282 282 281 279 277 276 275 274 274 272 272 273 274 274 274 272 270 270 269 270 271 271 267 268 265 264 264 263 261 259
273 274 275 277 278 279 280 280 281 281 280 279 277 275 274 273 273 272 273 274 274 273 273 272 271 270 269 270 270 271 268 266 264 263 263 262 260 258
275 276 277 278 278 278 277 277 277 278 280 279 277 275 274 272 272 273 274 274 273 273 273 272 271 270 267 266 269 270 270 269 265 263 259 258 256 257
279 280 279 278 277 276 274 273 274 278 278 278 277 275 273 271 273 274 273 271 270 270 270 271 270 267 266 268 267 271 269 268 268 261 261 256 254 257